This is the latest recevied weather packets stored in our database for station/object KM4KMS. If no packets are shown the sender has not sent any weather packets the latest 10 day(s).
| Time | Temp. | Humidity | Pressure | Rain* | Wind** | Luminosity | Snow |
|---|---|---|---|---|---|---|---|
| 1778153681 | 7.78° C | 80% | 1015.4 hPa | 0 mm | - | 38 W/m² | - |
| 1778153378 | 7.22° C | 82% | 1015.4 hPa | 0 mm | - | 34 W/m² | - |
| 1778153075 | 6.67° C | 83% | 1015.2 hPa | 0 mm | - | 30 W/m² | - |
| 1778152772 | 6.67° C | 83% | 1015.4 hPa | 0 mm | - | 27 W/m² | - |
| 1778152470 | 6.67° C | 84% | 1015.2 hPa | 0 mm | - | 23 W/m² | - |
| 1778152166 | 6.67° C | 84% | 1015.1 hPa | 0 mm | - | 19 W/m² | - |
| 1778151862 | 6.11° C | 84% | 1014.9 hPa | 0 mm | - | 16 W/m² | - |
| 1778151559 | 6.11° C | 84% | 1014.9 hPa | 0 mm | - | 12 W/m² | - |
| 1778151256 | 6.11° C | 85% | 1014.8 hPa | 0 mm | - | 10 W/m² | - |
| 1778150952 | 6.11° C | 85% | 1014.3 hPa | 0 mm | - | 6 W/m² | - |
| 1778150649 | 6.11° C | 84% | 1014.4 hPa | 0 mm | - | 4 W/m² | - |
| 1778150345 | 6.11° C | 84% | 1014.4 hPa | 0 mm | - | 2 W/m² | - |
| 1778150042 | 6.67° C | 84% | 1014.7 hPa | 0 mm | - | 0 W/m² | - |
| 1778149738 | 6.67° C | 83% | 1014.7 hPa | 0 mm | - | 0 W/m² | - |
| 1778149434 | 6.67° C | 83% | 1014.8 hPa | 0 mm | - | 0 W/m² | - |
| 1778149131 | 6.67° C | 83% | 1014.3 hPa | 0 mm | - | 0 W/m² | - |
| 1778148825 | 6.67° C | 83% | 1014.3 hPa | 0 mm | - | 0 W/m² | - |
| 1778148523 | 7.22° C | 83% | 1014.2 hPa | 0 mm | - | 0 W/m² | - |
| 1778148221 | 6.67° C | 84% | 1014.4 hPa | 0 mm | - | 0 W/m² | - |
| 1778147918 | 6.67° C | 85% | 1014.4 hPa | 0 mm | - | 0 W/m² | - |
| 1778147614 | 6.67° C | 87% | 1014.3 hPa | 0 mm | - | 0 W/m² | - |
| 1778147312 | 6.67° C | 88% | 1014.3 hPa | 0 mm | - | 0 W/m² | - |
| 1778147008 | 6.67° C | 89% | 1014.4 hPa | 0 mm | - | 0 W/m² | - |
| 1778146705 | 6.67° C | 89% | 1014.7 hPa | 0 mm | - | 0 W/m² | - |
| 1778146404 | 6.67° C | 91% | 1014.3 hPa | 0 mm | - | 0 W/m² | - |
* Rain latest hour (hover to see other rain measurements)
** Current wind speed in m/s (hover to see current wind gust speed)